{"data":{"norad_id":68335,"epoch":"2026-09-20T04:16:14.426400Z","epoch_age_seconds":75444,"freshness":"FRESH","line1":"1 68335U 26059Q   26263.17794475  .00013413  00000+0  40731-3 0  9999","line2":"2 68335  53.1577 155.5687 0001165  81.8923 278.2212 15.34407345 28084","mean_motion":15.34407345,"eccentricity":0.0001165,"inclination_deg":53.1577,"raan_deg":155.5687,"arg_perigee_deg":81.8923,"mean_anomaly_deg":278.2212,"bstar":0.00040731,"rev_number":2808,"period_min":93.847308844836,"perigee_km":461.88445406161,"apogee_km":463.478364751,"semimajor_km":6840.8184094063,"source":"CELESTRAK","updated_at":"2026-09-20T09:00:43.887104Z"}}